Location: Unspecified
(0.0000°N, 0.0000°E)
Time: 17:46:30
(UTC+00:00)

Vanguard 2 - Pass Details

Date: 14 December 2018
Orbit: 553 x 2939 km, 32.9° (Epoch: 18 June)

Event Time Altitude Azimuth Distance (km) Brightness Sun altitude
Rises 05:50:50 0° 286° (WNW) 6,274 - -0.9°
Exits shadow 05:50:58 - 286° (WNW) 6,246 11.5 -0.8°
Reaches altitude 10° 05:55:02 10° 280° (W) 5,472 11.2 0.1°
Maximum altitude 06:11:02 44° 213° (SSW) 3,653 11.0 3.8°
Drops below altitude 10° 06:26:30 10° 145° (SE) 5,243 12.9 7.3°
Sets 06:30:29 0° 139° (SE) 5,999 13.4 8.3°
